Powrót do katalogu

BLOCK DM-SL R/B

AktywnyMEO
NORAD 67758·ROCKET BODY·🇷🇺 Russia

Wystrzelony Feb 12, 2026 z Baikonur Cosmodrome

Loading…

Następne Przeloty (najbliższe 24 godziny)

TLE

ŚwieżeSource: Space-Track

Epoka: Sep 14, 2026, 12:54 UTC

1 67758U 26028C   26257.53773643 -.00000025  00000-0  00000-0 0  9999
2 67758   0.1529  51.3981 0101134 262.6111  45.1701  1.03179975  1919

Śledź BLOCK DM-SL R/B w czasie rzeczywistym z AllMySat

Download on the App Store